Regional Weather Roundup
Issued by NWS

Home | Current Version | Previous Version | Text Only | Print | Product List | Glossary Off
Versions: 1 2 3 4 5 6 7 8 9 10 11 12 13 14 15 16 17 18 19 20 21 22 23 24 25 26 27 28 29 30 31 32 33 34 35 36 37 38 39 40 41 42 43 44 45 46 47 48 49 50

000
ASUS43 KDMX 301008
RWRIA

WEATHER ROUNDUP FOR IOWA
NATIONAL WEATHER SERVICE DES MOINES IA
500 AM CDT MON MAY 30 2016

NOTE: "FAIR" INDICATES FEW OR NO CLOUDS BELOW 12,000 FEET WITH NO
SIGNIFICANT WEATHER AND/OR OBSTRUCTIONS TO VISIBILITY.

* - THESE STATIONS ARE NOT NWS STATIONS...THUS NOT UNDER NWS
QUALITY CONTROL.  THEY ALSO DO NOT REPORT WEATHER SUCH
AS PRECIPITATION OR FOG.

IAZ001>003-012>014-020>022-031>034-043>046-301100-
   NORTHWEST IOWA

CITY           SKY/WX    TMP DP  RH WIND       PRES   REMARKS
CARROLL *      CLEAR     63  57  82 CALM      30.00R
CHEROKEE *     CLOUDY    63  57  82 N10       30.03S
DENISON *      CLEAR     63  55  77 CALM      29.98R
LE MARS *      CLEAR     64  54  68 NE7       30.02F
ORANGE CITY *  CLOUDY    63  55  77 E7        30.02F
SHELDON *      LGT RAIN  61  55  82 SE10      30.03F
SIOUX CITY     CLOUDY    66  54  65 NE12      29.99R
SPENCER        TSTM      61  50  67 NW13G26   30.08R
STORM LAKE *   CLEAR     63  52  67 N14       30.03R
$$

IAZ055>058-069>071-079>083-090>094-301100-
   SOUTHWEST IOWA

CITY           SKY/WX    TMP DP  RH WIND       PRES   REMARKS
ATLANTIC *     CLEAR     63  61  94 CALM      29.99F
AUDUBON *      CLEAR     59  55  88 CALM      30.01S
CLARINDA *       N/A     61  61 100 MISG      30.01F
COUNCIL BLFS * CLEAR     64  59  82 SE6       29.98F
CRESTON *      CLEAR     63  61  94 S3        30.02F
HARLAN  *      CLEAR     61  59  94 CALM      30.03R
LAMONI         CLEAR     63  60  90 SW6       30.02S
RED OAK *      CLEAR     63  61  94 CALM      29.99F
SHENANDOAH *   CLEAR     64  64 100 SE3       29.99F
$$

IAZ047>049-059>061-072>074-084-301100-
   CENTRAL IOWA

CITY           SKY/WX    TMP DP  RH WIND       PRES   REMARKS
AMES           CLOUDY    58  57  97 CALM      30.00S
ANKENY *       MOCLDY    61  59  94 CALM      30.00R
BOONE *        CLEAR     63  55  77 E10       29.99F
CHARITON *     CLEAR     66  61  82 S8        30.01S
DES MOINES     CLOUDY    66  58  75 W5        29.99S
GRINNELL*      CLOUDY    63  57  82 CALM      30.02R
KNOXVILLE *    MOCLDY    68  63  83 S3        30.00R
MARSHALLTOWN   CLOUDY    62  61  96 CALM      30.00S
NEWTON *       CLOUDY    63  61  94 NE5       30.00S
PELLA *        CLOUDY    64  63  94 CALM      30.01S
PERRY *          N/A     64  59  82 E6        29.99S
$$

IAZ004>006-015-016-023>025-035-036-301100-
   NORTH CENTRAL IOWA

CITY           SKY/WX    TMP DP  RH WIND       PRES   REMARKS
ALGONA *       CLOUDY    61  54  77 E3        30.01S
CLARION *      MOCLDY    61  54  77 CALM      30.01S
ESTHERVILLE    CLOUDY    57  55  93 NW15      30.05R THUNDER
FORT DODGE *   CLOUDY    61  52  72 CALM      30.02R
MASON CITY     CLOUDY    53  51  93 CALM      30.03S
FOREST CITY *  PTCLDY    52  52 100 CALM      30.01S
WEBSTER CITY * PTCLDY    59  57  94 E5        29.99S
IOWA FALLS *     N/A     61  57  88 CALM      30.02F
$$

IAZ007>011-017>019-026>030-037>042-050>054-066-301100-
   NORTHEAST IOWA

CITY           SKY/WX    TMP DP  RH WIND       PRES   REMARKS
CEDAR RAPIDS   CLOUDY    60  59  96 CALM      30.00S
CHARLES CITY * CLEAR     57  54  88 CALM      30.03R
CLINTON *      CLEAR     63  59  87 SW5       30.01F
DECORAH *      CLEAR     59  59 100 CALM      30.01S
DUBUQUE        CLEAR     60  57  89 CALM      30.02R
MONTICELLO *   CLEAR     57  57 100 CALM      30.02R
OELWEIN *      CLEAR     57  57 100 CALM      30.03S
WATERLOO       PTCLDY    56  55  97 CALM      30.01R
$$

IAZ064-065-067-068-078-301100-
   EAST CENTRAL IOWA

CITY           SKY/WX    TMP DP  RH WIND       PRES   REMARKS
DAVENPORT      CLOUDY    62  57  83 CALM      30.02S
IOWA CITY      CLOUDY    64  59  83 CALM      30.02S
MT. PLEASANT * CLOUDY    68  64  88 S5        30.01F
MUSCATINE *    CLEAR     64  59  82 CALM      30.01F
QUAD CITIES    CLOUDY    65  59  81 NW7       30.01R
$$

IAZ062-063-075>077-085>089-095>099-301100-
   SOUTHEAST IOWA

CITY           SKY/WX    TMP DP  RH WIND       PRES   REMARKS
BURLINGTON     CLOUDY    67  62  84 W3        30.01F
FAIRFIELD *      N/A    N/A N/A N/A MISG        N/A
FORT MADISON * PTCLDY    66  61  82 SW3       30.03F
KEOKUK *       MOCLDY    66  63  88 VRB5      30.02R
OSKALOOSA *    LGT RAIN  66  57  72 W8        30.03R
OTTUMWA        CLOUDY    66  64  93 SW7       30.01S
WASHINGTON *   CLEAR     64 N/A N/A N6        30.02S
$$

ABBREVIATIONS USED IN REMARKS
   TC - TEMPERATURES IN CELSIUS
  WCI - WIND CHILL INDEX
   HX - HEAT INDEX
  VSB - VISIBILITY
$$




USA.gov is the U.S. government's official web portal to all federal, state and local government web resources and services.